THOR ABLESTAR DEB, 150

Orbit data source: Space-Track

THOR ABLESTAR DEB, 150 is space debris in LEO originally from a launch on Thu, 29 Jun 1961 UTC launched from the Air Force Eastern Test Range (AFETR). Debris objects in space refer to the collection of defunct objects orbiting the Earth. Examples of debris include non-operational satellites, rocket bodies, and fragments generated from explosions, collisions, or faulty payload assembly.

Loading next visibility...
THOR ABLESTAR DEB details
Identifier
150, 1961-015AL
Orbit
LEO
Last TLE update1 day ago
Origin
Flag of USUSAF SSD (US)
ManufacturerUnknown
MissionSpacecraft
Bus & MotorUnknown
MassUnknown
Launch date (UTC)
1961-06-29 (64 years ago)
Launch vehicleUnknown
Launch site
Air Force Eastern Test Range (AFETR)
Object type
Payload
Rocket body
Debris
Shape & HBRUnknown
Radar Cross SectionMedium (>0.1 m² and <1 m²)

Expand to show TLE details & history

TLE from 1 day ago
0 THOR ABLESTAR DEB
1 00150U 61015AL  25017.60303961  .00001286  00000-0  12258-2 0  9999
2 00150  66.2481  94.5574 0060883 202.7403 157.0969 13.83227262 37173
Epoch: 2025-01-17T14:28Z
Definitive object data (Epoch: 2025-01-17T14:28:22.622Z)
Latitude-0.00001°
Longitude120.19883°
Altitude995.646 km
Speed7.334 km/s
True Right ascension06h 18m 13s
True Declination0° 00' 00"
Sunlit
Object was in full shadow at TLE epoch
Visualization TLE readout
Latitude-66.19432°
Longitude34.523°
Altitude961.78 km
Speed7.378 km/s
Apparent Right ascension04h 35m 21s
Apparent Declination-62° 16' 34"
Sunlit
Object is in daylight
Visualization observer readout
Local Sidereal Time18:41:58
Azimuth150.115° SSE
Elevation-60.66°
Doppler factor1
Orbital elements
Apogee altitude995.547 km
Perigee altitude906.303 km
Semi-major axis7,329.062 km
Eccentricity0.0060883
Inclination66.2481°
RAAN94.5574°
Arg. of periapsis202.7403°
True anomaly157.36652°
Mean anomaly157.0969°
Eccentric anomaly157.2319°
Mean motion3.45916 °/min
BSTAR0.0012258
Orbital period104.07 mins
Loading maneuver chart data...

THOR ABLESTAR DEB Visibility forecast

Observer location: undefined°, undefined

Span
Click to sort rows by Start time (UTC) header in descending order
Start Az.
Max El. time (UTC)
Max El. Az.
Max El.
End time (UTC)
End Az.
6 mins2025-01-19 04:46:54.245Z131.689° SE2025-01-19 04:49:54.245Z102.345° ESE14.674°2025-01-19 04:52:54.245Z73.21° E
11 mins2025-01-19 06:30:54.245Z210.352° SW2025-01-19 06:35:54.245Z244.504° WSW44.783°2025-01-19 06:41:54.245Z28.847° NE
7 mins2025-01-19 08:20:54.245Z284.694° WNW2025-01-19 08:23:54.245Z316.264° NNW17.899°2025-01-19 08:27:54.245Z358.299° N
7 mins2025-01-19 13:51:54.245Z2.363° NNE2025-01-19 13:55:54.245Z48.345° ENE19.396°2025-01-19 13:58:54.245Z81.826° E
10 mins2025-01-19 15:38:54.245Z326.636° NNW2025-01-19 15:42:54.245Z285.062° WNW44.135°2025-01-19 15:48:54.245Z157.122° SSE
|